• In Hungary
  • List of Countries
  • For 7 days
  • Water Temperature
  • Satellite Maps
  • Weather Map
  • News
  • Weather Widgets
  • user-avatar
    Login

    Hourly Weather Tashliyar

    Today, 23 May, Wednesday

    Time Temperature Precipitation Wind Pressure Humidity
    00:00 +14°C° 0 mm 3 mps 762 mmHg 79%
    01:00 +14°C° 0 mm 3 mps 762 mmHg 80%
    02:00 +14°C° 0 mm 3 mps 762 mmHg 81%
    03:00 +14°C° 0 mm 2 mps 762 mmHg 81%
    04:00 +13°C° 0 mm 3 mps 762 mmHg 78%
    05:00 +14°C° 0 mm 3 mps 762 mmHg 76%
    06:00 +16°C° 0 mm 3 mps 762 mmHg 73%
    07:00 +17°C° 0 mm 3 mps 762 mmHg 70%
    08:00 +19°C° 0 mm 3 mps 762 mmHg 65%
    09:00 +21°C° 0 mm 3 mps 762 mmHg 60%
    10:00 +24°C° 0 mm 3 mps 762 mmHg 55%
    11:00 +25°C° 0 mm 3 mps 762 mmHg 52%
    12:00 +25°C° 0 mm 4 mps 762 mmHg 49%
    13:00 +26°C° 0 mm 4 mps 761 mmHg 46%
    14:00 +26°C° 0 mm 4 mps 761 mmHg 47%
    15:00 +26°C° 0 mm 4 mps 761 mmHg 47%
    16:00 +26°C° 0 mm 4 mps 760 mmHg 48%
    17:00 +25°C° 0 mm 4 mps 760 mmHg 53%
    18:00 +24°C° 0 mm 3 mps 760 mmHg 59%
    19:00 +23°C° 0 mm 2 mps 759 mmHg 64%
    20:00 +21°C° 0 mm 3 mps 759 mmHg 66%
    21:00 +19°C° 0 mm 3 mps 759 mmHg 69%
    22:00 +18°C° 0 mm 3 mps 759 mmHg 71%
    23:00 +18°C° 0 mm 3 mps 758 mmHg 71%

    Tomorrow, 24 May, Thursday

    Time Temperature Precipitation Wind Pressure Humidity
    00:00 +17°C° 0 mm 3 mps 758 mmHg 71%
    01:00 +17°C° 0 mm 4 mps 757 mmHg 71%
    02:00 +17°C° 0 mm 4 mps 757 mmHg 70%
    03:00 +17°C° 0 mm 4 mps 757 mmHg 68%
    04:00 +17°C° 0 mm 4 mps 757 mmHg 67%
    05:00 +18°C° 0 mm 4 mps 756 mmHg 68%
    06:00 +17°C° 0 mm 5 mps 756 mmHg 70%
    07:00 +19°C° 0 mm 5 mps 756 mmHg 71%
    08:00 +20°C° 0 mm 5 mps 756 mmHg 70%
    09:00 +21°C° 0 mm 5 mps 756 mmHg 70%
    10:00 +22°C° 0 mm 5 mps 756 mmHg 69%
    11:00 +21°C° 0.6 mm 5 mps 756 mmHg 73%
    12:00 +21°C° 0.6 mm 5 mps 756 mmHg 77%
    13:00 +20°C° 0.6 mm 5 mps 755 mmHg 81%
    14:00 +21°C° 0.2 mm 5 mps 755 mmHg 77%
    15:00 +21°C° 0.2 mm 5 mps 755 mmHg 74%
    16:00 +21°C° 0.2 mm 5 mps 755 mmHg 71%
    17:00 +21°C° 0.1 mm 4 mps 754 mmHg 74%
    18:00 +20°C° 0.1 mm 4 mps 754 mmHg 77%
    19:00 +20°C° 0.1 mm 3 mps 754 mmHg 81%
    20:00 +19°C° 0.2 mm 3 mps 754 mmHg 84%
    21:00 +18°C° 0.2 mm 3 mps 754 mmHg 87%
    22:00 +17°C° 0.2 mm 4 mps 754 mmHg 90%
    23:00 +17°C° 0.5 mm 3 mps 754 mmHg 91%

    Day after tomorrow, 25 May, Friday

    Time Temperature Precipitation Wind Pressure Humidity
    00:00 +16°C° 0.5 mm 3 mps 753 mmHg 92%
    01:00 +16°C° 0.5 mm 2 mps 753 mmHg 93%
    02:00 +15°C° 0.2 mm 2 mps 753 mmHg 94%
    03:00 +14°C° 0.2 mm 2 mps 753 mmHg 94%
    04:00 +14°C° 0.2 mm 2 mps 753 mmHg 94%
    05:00 +13°C° 0.1 mm 3 mps 753 mmHg 91%
    06:00 +13°C° 0.1 mm 3 mps 753 mmHg 88%
    07:00 +13°C° 0.1 mm 3 mps 753 mmHg 85%
    08:00 +13°C° 0 mm 4 mps 753 mmHg 75%
    09:00 +14°C° 0 mm 4 mps 753 mmHg 66%
    10:00 +15°C° 0 mm 5 mps 753 mmHg 56%
    11:00 +16°C° 0 mm 5 mps 753 mmHg 53%
    12:00 +16°C° 0 mm 5 mps 753 mmHg 50%
    13:00 +16°C° 0 mm 6 mps 753 mmHg 47%
    14:00 +16°C° 0.1 mm 6 mps 753 mmHg 49%
    15:00 +15°C° 0.1 mm 6 mps 753 mmHg 52%
    16:00 +14°C° 0.1 mm 6 mps 753 mmHg 54%
    17:00 +13°C° 0.2 mm 6 mps 754 mmHg 57%
    18:00 +11°C° 0.2 mm 6 mps 754 mmHg 61%
    19:00 +10°C° 0.2 mm 6 mps 754 mmHg 64%
    20:00 +9°C° 0 mm 6 mps 755 mmHg 63%
    21:00 +9°C° 0 mm 6 mps 755 mmHg 62%
    22:00 +8°C° 0 mm 6 mps 756 mmHg 62%
    23:00 +7°C° 0 mm 6 mps 756 mmHg 61%

    26 May, Saturday

    Time Temperature Precipitation Wind Pressure Humidity
    00:00 +5°C° 0 mm 6 mps 757 mmHg 60%
    01:00 +5°C° 0 mm 6 mps 757 mmHg 58%
    02:00 +4°C° 0 mm 6 mps 758 mmHg 57%
    03:00 +3°C° 0 mm 6 mps 758 mmHg 57%
    04:00 +3°C° 0 mm 6 mps 759 mmHg 56%
    05:00 +3°C° 0 mm 7 mps 760 mmHg 55%
    06:00 +4°C° 0 mm 7 mps 760 mmHg 54%
    07:00 +4°C° 0 mm 8 mps 761 mmHg 53%
    08:00 +5°C° 0 mm 8 mps 761 mmHg 51%
    09:00 +6°C° 0 mm 7 mps 761 mmHg 49%
    10:00 +9°C° 0 mm 7 mps 762 mmHg 46%
    11:00 +10°C° 0 mm 7 mps 762 mmHg 44%
    12:00 +11°C° 0 mm 7 mps 762 mmHg 43%
    13:00 +12°C° 0 mm 7 mps 762 mmHg 41%
    14:00 +12°C° 0 mm 7 mps 762 mmHg 42%
    15:00 +14°C° 0 mm 6 mps 762 mmHg 42%
    16:00 +14°C° 0 mm 6 mps 762 mmHg 43%
    17:00 +14°C° 0 mm 5 mps 762 mmHg 48%
    18:00 +14°C° 0 mm 4 mps 762 mmHg 54%
    19:00 +14°C° 0 mm 2 mps 762 mmHg 59%
    20:00 +13°C° 0 mm 2 mps 762 mmHg 61%
    21:00 +10°C° 0 mm 2 mps 762 mmHg 63%
    22:00 +9°C° 0 mm 2 mps 762 mmHg 64%
    23:00 +8°C° 0 mm 2 mps 762 mmHg 66%

    27 May, Sunday

    Time Temperature Precipitation Wind Pressure Humidity
    00:00 +8°C° 0 mm 2 mps 761 mmHg 68%
    01:00 +8°C° 0 mm 3 mps 761 mmHg 70%
    02:00 +8°C° 0 mm 3 mps 761 mmHg 70%
    03:00 +7°C° 0 mm 4 mps 760 mmHg 69%
    04:00 +7°C° 0 mm 4 mps 760 mmHg 68%
    05:00 +8°C° 0 mm 4 mps 760 mmHg 67%
    06:00 +8°C° 0 mm 5 mps 759 mmHg 66%
    07:00 +9°C° 0 mm 6 mps 759 mmHg 65%
    08:00 +10°C° 0 mm 6 mps 758 mmHg 69%
    09:00 +10°C° 0 mm 6 mps 757 mmHg 72%
    10:00 +11°C° 0 mm 6 mps 757 mmHg 76%
    11:00 +15°C° 0 mm 7 mps 756 mmHg 69%
    12:00 +18°C° 0 mm 8 mps 755 mmHg 62%
    13:00 +21°C° 0 mm 9 mps 754 mmHg 55%
    14:00 +21°C° 0.2 mm 9 mps 753 mmHg 57%
    15:00 +21°C° 0.2 mm 9 mps 752 mmHg 58%
    16:00 +22°C° 0.2 mm 9 mps 751 mmHg 60%
    17:00 +19°C° 0.7 mm 9 mps 750 mmHg 66%
    18:00 +18°C° 0.7 mm 8 mps 750 mmHg 72%
    19:00 +17°C° 0.7 mm 8 mps 750 mmHg 78%
    20:00 +15°C° 0.2 mm 7 mps 750 mmHg 81%
    21:00 +12°C° 0.2 mm 7 mps 750 mmHg 85%
    22:00 +10°C° 0.2 mm 6 mps 750 mmHg 88%
    23:00 +9°C° 0 mm 6 mps 750 mmHg 89%

    28 May, Monday

    Time Temperature Precipitation Wind Pressure Humidity
    00:00 +8°C° 0 mm 5 mps 751 mmHg 89%
    01:00 +7°C° 0 mm 4 mps 751 mmHg 90%
    02:00 +7°C° 0 mm 5 mps 751 mmHg 89%
    03:00 +6°C° 0 mm 5 mps 752 mmHg 89%
    04:00 +5°C° 0 mm 5 mps 752 mmHg 88%
    05:00 +5°C° 0 mm 6 mps 752 mmHg 82%
    06:00 +5°C° 0 mm 6 mps 752 mmHg 77%
    07:00 +6°C° 0 mm 7 mps 753 mmHg 71%
    08:00 +8°C° 0 mm 7 mps 753 mmHg 63%
    09:00 +9°C° 0 mm 7 mps 753 mmHg 55%
    10:00 +10°C° 0 mm 7 mps 753 mmHg 48%
    11:00 +10°C° 0.2 mm 7 mps 753 mmHg 50%
    12:00 +10°C° 0.2 mm 8 mps 752 mmHg 52%
    13:00 +10°C° 0.2 mm 8 mps 752 mmHg 54%
    14:00 +10°C° 0.3 mm 8 mps 752 mmHg 52%
    15:00 +10°C° 0.3 mm 8 mps 752 mmHg 51%
    16:00 +10°C° 0.3 mm 9 mps 752 mmHg 50%
    17:00 +9°C° 0 mm 8 mps 752 mmHg 52%
    18:00 +8°C° 0 mm 7 mps 752 mmHg 53%
    19:00 +7°C° 0 mm 6 mps 752 mmHg 55%
    20:00 +6°C° 0 mm 5 mps 752 mmHg 57%
    21:00 +5°C° 0 mm 4 mps 751 mmHg 58%
    22:00 +4°C° 0 mm 3 mps 751 mmHg 60%
    23:00 +4°C° 0.1 mm 3 mps 750 mmHg 63%
    Show more